Погода в Светлограде

Погода в Светлограде : погода сейчас, прогноз погоды и архив. Всё, что Вы хотите узнать о погоде в Светлограде!

Хотите узнать прогноз погоды в Светлограде? Тогда Вам сюда: Погода в Светлограде

Поиск расширенной информации на нашем сайте:

Другие новости

Новости СМИ2

Главная страница сайта

Новости сайта

03.07.2017

Напоминаем, что на нашем специализированном сайте Метеоцентр.Азия вы можете получить высокодетализированные автоматические прогнозы погоды по пунктам России, СНГ и мира в авиационном формате (включающие направление и скорость ветра, видимость, явления погоды, количество и форму облачности, нижнюю и верхнюю границу облачности).


Погода в Светлограде - сегодня

Время (UTC), дата Ветер
(°,м/с) 
Видим.   Явления Облачность Т
(°С)
Тd
(°С)
f(%) Тe
(°С)
Pmin
(гПа)
dP
(гПа)
Po
(мм)
O2
(г/м3)
Тmin Tmax R s Состояние
почвы
18 20.04.18 270 (З) 20000 м    8/8 600 м 
[Sc]
+9.5 +5.3 75 +9  1009  1.8  744  289           
21 20.04.18 230 (ЮЗ) 20000 м    8/8 600 м 
[Sc]
+8.6 +5.5 81 +9  1010  745  290           
00 21.04.18 250 (З) 20000 м    10/10 600 м 
[Sc]
+8.7 +6.8 88 +8  1010.1  0.1  745  290           
03 21.04.18 280 (З) 20000 м    10/10 300 м 
[Sc]
+9.2 +7.9 92 +9  1011.4  0.1  746  289  +8.6        сухая 
06 21.04.18 290 (З) 10 км  {ливн. осадки}  10/10 300 м 
[Sc diur, vesp]
+9.5 +8.5 93 +10  1013.4  747  289           
09 21.04.18 280 (З) 10 км  слаб. ливневой дождь  10/10 300 м кучево-дожд. 
[Cb cap]
+10 +8.4 90 +10  1014.3  748  289           
15 21.04.18 тихо ()   20000 м    4/4 600 м 
[Sc diur, vesp]
+14.4 +5.8 56 +14  1012.7  -0.5  747  285    +15  0.0     
18 21.04.18 100 (В) 20000 м    ясно 
+7.3 +5.5 88 +8  1013.6  0.4  747  292           
21 21.04.18 190 (Ю) 20000 м    ясно 
+9.4 +4.4 71 +9  1012.9  -0.6  747  290           
00 22.04.18 200 (Ю) 20000 м    ясно 
+8.8 +4 72 +8  1011.7  -1.3  746  291           
03 22.04.18 200 (Ю) 5-11{11}  20000 м    ясно 
+9 +3.4 68 +8  1010.3  -1.3  745  290  +5.6        сухая 
06 22.04.18 240 (ЮЗ) 6-10{11}  20000 м    4/3 600 м верхняя 
[Cu hum|Ci fib]
+16.2 +3 41 +16  1008.5  -1.3  744  283           
09 22.04.18 250 (З) 5-11{14}  20000 м    10/8 1000 м верхняя 
[Sc|Ci fib]
+16.6 +3.4 41 +16  1007  -1.5  743  282           
12 22.04.18 250 (З) 6-14{17}  20000 м    9/8 600 м верхняя 
[Sc|Ci fib]
+16.7 +3.4 41 +16  1007  743  282           
15 22.04.18 250 (З) 6-12  20000 м    6/4 600 м верхняя 
[Sc|Ci fib]
+16.2 +1.5 37 +16  1007.4  0.3  743  282    +17.7       
18 22.04.18 250 (З) 5-12{15}  20000 м    ясно 
+12.6 +0.5 43 +12  1009.1  1.5  744  287           
21 22.04.18 250 (З) 4-10{13}  20000 м    ясно 
+12.4 +0.8 45 +12  1009.1  0.1  744  287           
00 23.04.18 250 (З) 4-10{13}  20000 м    ясно 
+11.2 +1.8 52 +10  1009.9  0.7  745  288           
03 23.04.18 250 (З) 20000 м    3/0 верхняя 
[Ci fib]
+10.1 +2.8 60 +9  1010.6  0.7  745  289  +9.7        сухая 
09 23.04.18 300 (СЗ) 4{14}  20000 м    10/10 600 м 
[Sc diur, vesp]
+12.2 +4.2 58 +12  1011.5  -0.1  746  287           
12 23.04.18 260 (З) 3{14}  10 км  слаб. ливневой дождь  10/10 300 м кучево-дожд. 
[Cb cap]
+9.4 +6.3 81 +9  1012.4  0.6  747  290           
15 23.04.18 210 (ЮЗ) 20000 м  {ливн. осадки}  10/10 600 м 
[Sc diur, vesp]
+11.9 +7 72 +12  1011.8  -0.5  746  287    +17.1     
18 23.04.18 тихо ()   20000 м  {ливн. осадки}  10/10 600 м 
[Sc diur, vesp]
+8.5 +4.8 78 +9  1015.6  3.6  749  292           
21 23.04.18 тихо ()   20000 м    4/4 600 м 
[Sc]
+5.4 +4.6 95 +5  1016.8  0.9  750  295           
00 24.04.18 тихо ()   20000 м    ясно 
+3.6 +3.2 97 +4  1017.8  0.9  750  298           
Время (UTC), дата Ветер
(°,м/с) 
Видим.   Явления Облачность Т
(°С)
Тd
(°С)
f(%) Тe
(°С)
Pmin
(гПа)
dP
(гПа)
Po
(мм)
O2
(г/м3)
Тmin Tmax R s Состояние
почвы

Для получения пояснительной информации подведите курсор к названию столбца.

ПОГОДА в Светлограде - архив

Всё, что Вы хотите узнать о погоде в Светлограде - удобно и подробно!

Выберите нужную дату (начиная с 1 января 2015* года) и нажмите кнопку "Найти".
Будут отображены архивные сводки погоды по пункту Светлоград, начиная с указанной даты.


Отображать данные в формате CSV (для использования в таблицах Excel)


Внимание! Наш архив погоды предназначен исключительно для личного некоммерческого использования в познавательных целях. Если Вам необходимы официальные справки о состоянии погоды (для производственных, юридических, коммерческих и т.п. целей), обращайтесь в органы Росгидромета.

*Примечание: данная дата относится к архиву по метеостанциям СССР (Россия, СНГ, Балтия).
Архив по метеостанциям Зарубежной Европы и Азии (кроме Китая) хранится 10 дней, по другим регионам земного шара (Китай, Африка, Америка, Австралия, Океания) - 1 день.

Светлоград - район местоположения метеостанции


Название, широта, долгота, высота метеостанции:
Светлоград 45.3°ш. 42.9°д. 140 м над ур. моря [Российская Федерация]

Дополнительная информация

В oтличие oт бoльшинства пoгoдных сайтoв мы публикуем пoдрoбную метеoинфoрмацию в детальнoм прoфессиoнальнoм фoрмате.

Характеристики температуры и влажнoсти вoздуха измеряются на высoте 2 м в тени вдали oт зданий и деревьев.
Скoрoсть ветра измеряется на высoте 10 м (на урoвне рoста челoвека скoрoсть ветра ниже в 1.5-2 раза). Если метеoстанция нахoдится в гoрoде или в лесу, тo скoрoсть ветра занижена на 2-4 м/с пo сравнению с oткрытым местoм. Скoрoсть ветра над акватoриями крупных рек и oзёр, а также на вершинах хoлмoв на 2-5 м/с выше, чем в oбычных услoвиях.
Атмoсфернoе давление в разных тoчках местнoсти мoжет значительнo oтличаться oт давления на метеoстанции, в зависимoсти oт услoвий рельефа (при пoдъёме на 10 м давление пoнижается примернo на 1 мм рт.ст.).